Wind_Speed
27 21 22 23 21 23 22 21 15 8 9 10 12 15 13 11 8 7 6 5 7 6 4 5 5 3 3 3 3 4 5 5 7 9 11 13 14 15 18 22 25 27 28 28 27 25 23 22 21 20 19 18 19 19 18 18 17 17 17 15 13 13 15 16 15 15 15 15 14 13 13 13 12 11 11 10 10 9 8 7 6 6 6 7 7 7
26 21 22 22 17 18 20 19 14 8 9 10 10 13 13 12 8 6 6 7 7 6 4 5 5 4 5 5 5 3 4 6 6 7 8 9 11 13 16 20 24 26 28 29 28 27 25 24 23 22 20 19 18 18 19 19 18 17 17 16 14 13 14 15 15 15 15 15 14 13 12 12 11 11 11 10 10 9 8 7 7 6 6 7 7 7
24 22 20 18 16 16 19 19 15 10 10 11 11 11 13 13 9 5 6 7 7 7 5 3 4 5 5 7 5 3 4 6 7 8 8 8 9 11 13 18 23 26 27 29 29 28 27 26 25 24 22 20 18 18 18 19 19 19 18 18 16 14 14 15 16 16 16 15 15 14 13 12 12 11 11 11 10 10 8 8 7 6 6 6 7 7
21 20 18 17 17 17 17 18 17 13 12 12 12 13 13 13 12 8 7 7 7 7 5 3 5 6 5 7 6 4 5 7 8 9 10 10 9 9 9 13 20 26 28 29 30 29 29 28 27 26 24 22 20 19 19 19 19 19 18 18 17 15 14 15 16 16 17 17 16 15 14 13 12 12 11 11 10 10 8 7 7 7 7 6 7 7
15 14 16 18 17 18 18 17 17 16 15 14 13 14 12 11 12 7 6 6 7 8 7 5 8 9 7 6 7 7 6 8 10 11 11 12 11 9 9 11 14 21 27 29 30 30 29 30 29 28 26 24 22 20 19 19 19 18 18 18 18 17 15 15 16 17 17 18 17 16 15 13 12 11 11 10 10 9 8 7 7 7 7 7 6 7
14 11 15 17 17 18 18 18 18 17 16 16 16 15 10 8 10 7 3 4 8 10 9 7 9 9 9 6 7 8 8 9 11 12 12 12 12 11 9 10 12 16 22 26 28 29 29 30 29 28 28 26 24 21 19 18 19 19 18 18 18 18 17 16 17 18 18 18 18 16 14 13 11 10 10 10 10 10 9 8 7 7 7 7 6 7
13 12 14 15 17 19 18 18 18 18 16 14 15 17 12 7 8 8 6 6 9 8 6 6 8 7 10 8 7 6 6 8 10 10 12 12 12 12 9 8 10 12 17 22 26 28 29 30 29 28 28 27 25 23 21 19 19 19 19 19 18 18 18 17 18 19 19 18 17 16 15 13 11 10 10 10 10 10 10 9 8 7 7 7 7 7
13 11 13 15 16 19 19 18 18 18 17 12 10 14 13 10 10 10 9 10 9 6 4 6 7 6 8 9 6 5 6 6 7 8 10 12 12 11 10 9 9 9 12 18 24 27 28 29 29 29 28 27 26 25 23 21 20 19 19 19 18 18 18 18 18 19 19 18 18 17 16 15 13 12 12 11 11 11 11 10 9 8 8 8 8 8
14 13 14 16 17 19 20 18 16 18 19 12 6 9 12 10 10 10 11 12 8 6 9 10 8 9 9 9 4 3 6 5 4 5 7 10 12 12 12 11 11 10 11 15 20 25 27 28 28 28 28 28 27 26 25 23 21 20 20 20 20 19 18 19 19 19 19 19 18 18 17 16 15 14 14 13 12 12 11 10 10 9 9 9 9 8
12 16 14 15 16 16 18 17 15 17 19 12 6 8 10 10 9 10 11 12 9 8 12 11 10 11 8 9 4 4 7 4 4 2 4 6 9 11 13 12 12 12 13 14 17 21 25 27 28 27 27 28 27 27 26 24 23 22 21 21 20 20 19 19 19 19 19 19 20 20 19 18 16 15 15 14 13 13 12 11 10 10 10 9 9 8
9 17 16 15 15 13 15 17 15 16 17 11 8 9 10 10 10 10 11 12 9 9 15 13 11 14 7 7 5 3 4 4 4 3 4 6 8 10 12 13 13 14 13 14 16 20 23 25 27 28 27 28 28 28 27 26 25 24 23 22 21 21 20 19 19 19 20 20 20 20 20 18 17 17 16 15 14 13 12 11 11 11 10 10 10 9
8 13 16 19 21 17 14 13 12 15 16 12 10 12 12 11 11 11 12 11 8 8 15 15 11 14 11 6 7 4 2 5 4 4 5 7 8 11 13 14 14 15 14 14 15 18 21 24 27 29 29 29 29 29 28 27 26 25 24 23 22 22 22 21 20 19 20 20 20 20 20 20 19 18 16 15 14 13 12 12 11 11 11 10 10 10
11 12 13 16 20 20 16 12 11 13 17 16 14 16 15 12 10 11 11 11 10 9 12 15 13 12 7 7 7 3 2 5 3 3 5 6 7 10 13 15 15 15 15 15 16 17 19 23 26 29 30 30 30 30 29 27 27 26 25 24 23 22 22 21 21 20 20 20 20 20 21 21 20 19 17 16 15 14 13 13 12 12 11 11 10 10
13 10 11 12 13 18 18 15 13 14 19 20 18 20 17 11 9 9 9 9 11 12 10 12 14 11 7 7 5 2 3 4 2 3 5 5 7 8 10 13 15 16 16 16 16 17 18 21 24 27 29 30 31 30 29 28 28 27 26 25 24 23 22 22 22 21 20 19 19 20 21 21 21 20 18 17 16 15 14 14 13 13 12 12 11 11
13 9 13 14 11 16 19 17 14 13 19 22 18 19 17 12 10 9 10 10 12 14 12 12 12 11 9 8 6 4 4 3 2 3 4 5 6 7 9 12 13 14 16 18 19 18 18 19 21 24 27 29 31 30 29 29 29 28 27 26 25 24 23 23 22 22 21 20 19 20 21 22 21 21 20 19 18 17 16 15 15 14 14 13 13 12
10 7 14 16 12 16 20 19 15 11 15 20 18 18 18 15 11 8 10 13 16 14 13 14 10 6 11 11 7 5 3 2 1 1 2 3 4 5 7 10 13 14 14 16 19 20 19 19 20 22 25 27 29 31 30 30 29 28 27 26 25 25 24 23 23 22 21 21 20 20 21 22 22 22 21 20 19 18 17 17 16 15 15 15 14 14
8 7 13 15 12 15 18 19 19 14 11 15 19 19 16 12 9 5 5 12 15 10 11 17 12 11 13 10 5 4 4 4 4 1 1 2 2 4 5 7 12 15 16 17 18 20 21 22 21 22 23 25 27 30 32 31 30 28 27 26 26 26 25 25 24 23 22 22 21 20 20 21 22 23 22 21 20 20 20 19 17 17 16 16 15 15
8 8 11 11 9 12 14 14 19 18 11 11 17 19 14 11 10 8 5 10 13 7 10 20 17 14 14 8 3 7 8 6 7 6 4 3 3 4 4 6 10 13 16 19 20 21 23 24 24 23 23 24 25 27 30 32 30 29 27 27 27 27 26 26 25 24 23 23 22 22 21 21 21 22 23 22 22 22 22 21 19 18 17 17 16 16
8 8 10 11 9 11 13 12 15 18 17 12 9 12 15 13 13 13 9 8 11 8 9 18 17 10 7 3 2 9 13 9 8 8 7 6 4 3 3 5 7 10 13 15 18 20 22 25 26 25 24 24 24 25 26 28 29 29 29 28 28 28 27 26 26 26 25 23 23 23 22 21 21 21 23 24 24 24 23 22 21 20 19 18 18 17
11 6 8 10 11 12 11 9 8 9 16 17 10 9 14 14 12 15 15 10 11 10 7 12 14 8 5 3 3 3 10 11 9 9 9 8 7 5 5 5 5 7 10 13 16 19 20 24 26 26 25 25 25 24 24 25 26 27 28 29 29 28 28 28 27 27 26 24 23 23 23 23 22 22 22 23 24 25 24 23 23 22 21 20 19 18
12 8 7 11 12 11 8 7 9 7 8 13 12 11 15 14 10 11 15 13 10 9 8 10 10 8 6 3 3 3 4 8 8 8 9 9 8 7 7 6 5 6 7 10 15 18 17 19 22 24 25 25 24 24 24 24 24 25 26 28 29 29 28 28 29 28 27 26 25 23 23 23 23 23 22 23 24 25 25 25 25 24 23 22 21 20
11 7 8 11 11 10 8 10 14 14 11 9 7 8 11 12 12 12 13 14 12 7 7 9 8 9 6 4 4 3 2 5 6 6 6 6 6 6 7 7 7 6 7 8 13 17 17 17 19 20 22 23 23 23 24 23 23 24 26 27 28 29 29 29 29 29 28 27 26 25 24 23 23 24 24 23 23 24 26 27 26 26 25 24 23 22
12 8 6 9 10 10 12 13 13 15 16 11 7 9 9 6 9 11 8 12 17 10 7 8 6 8 7 7 5 3 2 2 3 3 3 4 4 5 5 7 7 7 7 7 10 15 18 20 21 21 21 20 21 22 23 23 24 24 25 25 26 28 29 29 29 30 29 28 27 26 25 24 24 24 24 24 24 24 24 26 27 27 27 26 25 24
10 9 8 10 10 9 10 10 10 12 12 7 5 11 11 6 10 12 5 6 15 12 9 11 5 8 10 9 5 4 5 3 1 1 2 3 4 4 4 5 7 7 7 8 10 14 19 22 24 24 24 23 22 22 22 22 23 24 24 24 25 27 28 28 30 30 29 28 28 27 27 26 25 25 24 24 24 24 24 24 25 27 28 28 27 27
7 7 9 10 9 9 7 5 8 9 8 5 4 9 11 9 13 15 8 7 10 8 9 11 4 11 13 10 6 5 5 4 2 1 2 2 4 5 3 4 6 6 7 8 10 15 19 22 25 25 26 26 24 23 23 23 23 23 23 24 24 25 26 28 30 31 30 29 28 28 28 28 27 26 25 24 23 23 23 23 24 25 27 28 28 28
6 6 8 6 5 8 6 5 8 9 7 5 5 6 9 10 11 9 8 10 9 6 5 4 6 16 14 10 9 6 5 4 2 1 1 1 3 5 5 5 5 5 6 7 10 14 18 22 25 26 27 28 26 25 26 25 24 22 22 23 23 24 26 27 29 30 30 29 29 29 29 29 29 28 26 25 24 23 23 24 24 24 25 26 28 28
6 7 8 6 4 1 3 5 11 10 6 5 4 4 4 8 10 6 6 9 8 7 6 6 13 18 14 11 10 7 6 5 4 2 1 2 2 4 6 7 7 6 6 6 7 12 17 20 24 27 28 28 27 27 27 28 27 25 24 24 23 24 25 27 28 30 31 30 30 30 30 29 29 29 28 27 26 25 24 24 25 25 24 26 27 28
5 5 8 8 8 5 1 4 10 9 7 6 4 3 3 5 7 4 2 7 7 5 7 11 15 16 14 11 10 10 10 9 7 5 2 1 2 3 6 7 8 9 8 7 6 9 14 19 22 24 26 28 28 28 29 30 31 29 28 27 25 25 25 26 27 29 30 31 32 32 31 30 29 29 29 29 28 27 26 26 25 25 25 26 27 28
6 4 6 7 7 9 8 8 9 9 9 8 5 5 5 5 5 3 3 9 8 2 7 15 15 13 12 11 11 13 12 9 8 6 3 1 1 2 3 5 7 8 9 9 8 7 9 15 19 22 24 27 28 29 29 30 31 30 29 28 27 27 27 27 29 29 30 31 33 33 32 31 31 30 30 30 30 29 28 28 27 27 27 27 27 28
5 4 7 6 4 6 8 10 10 9 9 7 5 7 8 7 7 6 5 9 8 4 7 14 14 12 11 11 12 13 11 9 9 7 5 3 1 1 2 3 5 7 8 8 9 9 7 7 13 19 23 25 27 28 28 28 29 30 29 28 28 29 30 30 31 31 32 32 32 32 32 32 32 32 31 30 30 30 29 29 29 29 28 28 28 28
4 4 7 7 4 4 6 7 7 7 7 6 5 8 10 9 9 9 7 8 8 4 5 11 11 9 10 12 11 11 10 10 9 7 6 4 2 0 2 3 3 5 6 7 8 8 8 9 8 11 18 22 24 26 27 27 27 29 30 30 29 30 31 32 32 32 33 33 32 32 33 32 32 32 31 31 30 30 29 29 30 30 30 29 29 29
4 5 6 6 4 4 5 4 3 3 5 6 6 7 8 7 6 7 8 10 9 7 7 10 10 9 13 14 12 11 10 8 8 7 7 5 3 1 2 3 3 4 5 6 6 7 9 10 10 9 12 17 20 22 24 24 25 27 29 31 31 29 29 31 31 32 33 33 33 34 35 34 33 33 32 32 31 30 30 30 30 31 31 30 30 30
5 5 5 5 4 4 4 3 2 2 4 5 8 8 7 7 7 7 10 13 14 11 7 7 9 15 18 15 12 12 10 8 7 7 6 5 5 4 3 3 4 4 5 5 6 6 8 8 9 10 10 13 16 18 21 22 23 25 26 28 31 29 28 27 28 30 33 34 33 35 36 35 35 35 33 33 32 32 32 31 31 32 31 31 31 32
6 6 4 4 4 4 4 2 1 4 4 6 9 8 7 8 8 7 8 10 13 13 12 11 15 21 22 17 16 17 13 11 11 9 7 7 7 6 6 5 6 6 6 6 7 8 8 8 9 10 11 12 14 16 19 20 21 23 24 26 28 29 28 27 27 28 31 33 33 34 35 35 36 37 36 35 34 34 34 33 32 32 31 31 32 33
4 4 4 4 3 3 4 3 3 4 4 6 8 8 6 7 7 8 9 10 12 12 12 13 16 19 21 19 19 20 17 16 15 14 12 10 9 9 9 8 8 8 8 7 7 8 9 9 9 10 11 13 14 16 18 20 20 22 23 24 26 27 27 26 27 27 30 33 34 33 33 34 35 37 37 37 36 36 35 34 33 33 32 32 33 34
5 4 3 4 4 3 5 6 4 1 3 5 8 6 5 5 5 6 7 10 10 9 8 9 11 13 17 18 17 17 18 18 16 15 15 14 12 12 11 10 10 10 10 9 8 8 9 10 10 9 10 11 13 15 16 18 19 20 22 23 23 25 26 26 26 27 29 32 32 32 33 35 35 35 36 37 37 36 36 35 35 34 34 35 36 35
8 5 3 4 4 4 5 6 4 2 4 7 8 7 7 6 6 6 6 8 10 8 8 9 11 11 12 12 13 15 17 15 12 13 17 17 15 14 14 13 13 13 13 12 11 10 9 9 9 9 9 9 11 14 14 13 15 16 19 22 23 23 24 25 26 27 28 29 29 31 33 34 35 35 35 37 38 38 37 36 36 36 37 37 37 37
9 7 5 4 4 4 5 5 5 5 4 7 10 10 9 9 9 8 7 8 12 12 9 8 10 11 9 8 10 13 14 11 9 13 18 18 17 17 16 16 16 15 15 15 15 14 12 10 9 9 9 8 9 11 12 11 10 11 14 17 20 23 23 23 24 24 23 22 26 29 29 30 32 35 36 37 38 39 38 38 38 38 38 38 38 38
9 7 6 5 4 5 6 6 6 4 3 7 10 11 10 10 10 8 8 10 15 18 16 12 12 10 7 6 9 12 12 9 10 16 21 21 20 19 18 17 18 18 18 18 18 17 16 14 12 10 9 8 8 8 10 9 8 7 7 10 14 17 20 21 22 21 20 22 25 28 29 29 29 31 34 36 37 37 37 37 37 38 38 38 38 38
8 6 6 6 6 6 6 7 7 4 5 9 12 11 11 9 6 6 7 10 15 17 16 15 17 15 11 10 13 13 12 11 15 20 23 23 22 21 19 19 19 19 20 21 20 20 19 18 17 15 12 11 9 8 9 9 8 5 4 5 8 10 13 16 19 21 22 25 27 29 31 33 32 30 30 31 32 34 35 35 36 36 37 38 38 38
7 7 6 7 8 7 7 8 7 4 7 13 14 14 12 8 6 8 9 10 13 11 9 10 13 14 14 15 16 16 16 17 21 24 24 24 23 22 21 22 21 20 21 23 23 23 23 21 20 18 17 15 13 11 10 10 9 8 6 7 8 8 9 11 15 18 22 25 26 27 29 32 35 36 35 33 32 31 32 34 34 34 35 36 36 37
7 7 8 9 8 7 7 8 6 5 10 14 13 14 13 9 7 9 12 13 13 11 10 11 11 13 14 15 16 18 19 21 23 25 25 26 26 25 24 25 25 24 23 24 24 26 26 25 23 21 20 19 18 16 14 12 12 11 10 9 9 9 9 9 10 12 17 21 23 24 26 29 33 36 36 36 36 34 32 32 32 32 33 34 35 36
8 8 7 9 9 7 7 8 6 5 9 10 7 8 11 11 11 13 16 16 17 17 18 19 18 18 19 18 19 21 21 22 24 25 26 26 27 28 28 28 28 28 26 26 26 27 28 28 27 25 23 22 21 20 19 17 16 14 13 11 9 9 10 10 9 10 13 16 20 22 24 25 28 30 31 33 36 38 37 36 34 33 32 33 35 36
11 10 8 8 9 8 7 7 7 8 10 10 6 6 8 11 14 18 19 18 18 19 20 21 22 22 21 21 22 23 23 25 26 27 28 28 28 29 30 30 31 32 31 30 29 28 29 29 30 30 28 26 25 24 22 21 20 18 17 15 13 11 11 11 11 11 12 13 14 14 15 17 22 25 26 27 30 34 36 37 37 35 33 32 33 35
12 12 11 9 10 11 10 9 11 13 14 15 13 12 13 13 15 17 19 20 21 21 22 23 23 22 21 21 22 22 23 25 26 27 29 29 29 30 30 31 31 32 34 35 34 33 32 32 31 32 32 30 29 27 26 25 24 22 21 19 18 16 15 13 11 10 10 12 11 10 9 10 14 19 22 23 24 26 29 32 34 35 33 30 29 30
13 14 13 11 13 15 14 14 16 16 16 16 15 15 16 16 16 17 18 20 22 23 24 25 25 25 25 23 23 23 24 25 26 27 28 28 29 30 31 31 32 32 33 35 37 37 37 36 35 34 34 34 32 30 29 29 28 26 24 22 20 20 19 18 15 12 11 11 10 10 10 9 9 11 15 18 21 22 23 26 29 31 31 31 30 29
16 16 15 15 16 15 12 13 15 14 14 15 16 16 17 17 17 18 18 18 19 20 20 22 23 24 25 24 24 24 24 25 26 26 27 28 29 29 30 30 31 32 32 34 36 38 39 40 40 39 37 36 36 34 33 32 31 31 29 26 24 23 22 22 21 19 16 14 12 11 11 11 10 10 11 14 17 20 22 23 25 27 29 31 31 30
15 16 15 16 18 17 14 14 15 16 17 19 19 19 18 17 17 18 18 18 18 18 17 18 18 19 21 22 23 24 24 25 26 26 27 28 29 29 30 30 30 31 32 33 34 36 38 39 41 42 42 41 40 39 37 35 34 34 34 32 29 26 25 24 24 23 22 20 18 16 13 12 11 12 13 14 15 18 20 22 23 25 28 28 28 27
16 16 15 16 18 18 17 16 17 18 19 20 20 19 17 16 16 16 17 18 18 18 18 18 17 18 19 20 21 22 23 23 24 24 25 27 28 28 29 29 30 31 31 32 33 35 37 38 39 40 42 43 43 43 43 41 38 36 36 36 35 32 30 28 26 26 26 25 23 22 19 15 14 14 15 15 16 18 19 19 20 23 27 28 28 27
21 18 17 18 17 16 16 15 14 15 15 14 15 16 16 15 16 16 17 17 18 18 18 18 18 19 20 20 21 22 23 22 23 24 25 26 27 28 28 28 30 30 30 31 32 34 36 38 39 39 40 42 43 44 46 47 45 42 40 40 39 38 36 33 31 29 29 28 27 26 24 22 20 19 17 16 18 20 21 19 18 19 21 24 28 29
22 17 17 19 17 16 15 13 12 14 14 13 13 14 13 14 17 17 17 18 18 18 19 19 20 21 22 23 23 24 24 25 25 26 27 27 27 28 29 30 31 31 31 30 30 31 33 35 38 39 40 40 41 42 44 47 49 48 46 44 43 43 42 40 37 35 33 32 31 30 29 27 25 23 21 20 19 19 20 21 19 17 16 17 21 26
Wind_Direction
193 192 196 197 200 200 196 192 196 199 184 181 188 194 196 192 177 149 162 181 176 175 196 210 218 220 223 228 200 178 177 181 184 188 196 201 196 192 194 195 195 194 191 190 189 190 190 189 187 185 187 187 186 185 183 183 183 182 182 182 182 180 180 181 179 174 170 170 169 165 160 159 160 160 159 161 161 160 163 167 168 166 162 159 159 162
195 200 207 204 200 198 196 194 193 193 183 179 184 188 196 198 174 142 169 176 162 174 195 198 218 229 211 215 225 224 207 194 188 188 191 200 205 200 194 196 198 197 196 194 192 193 194 195 194 191 190 190 190 188 187 186 185 186 185 184 185 183 181 182 181 177 173 171 170 168 165 164 166 166 164 167 167 165 169 172 170 170 169 165 163 165
199 207 211 206 200 195 194 196 195 195 194 196 196 197 204 201 183 152 172 180 167 175 191 192 218 227 207 212 234 266 232 206 192 190 190 193 203 207 200 195 197 199 199 198 196 196 197 199 199 197 194 192 191 190 190 189 188 189 188 186 187 184 182 183 184 181 177 175 175 175 175 172 173 174 172 172 173 171 171 173 172 172 172 167 166 168
200 210 210 203 196 189 188 194 198 199 200 202 201 204 204 195 194 187 164 172 181 188 207 236 241 230 203 213 242 263 228 210 200 194 196 198 198 206 209 198 195 198 201 200 200 200 200 202 203 201 199 196 193 192 192 192 192 192 191 189 188 187 185 184 185 185 183 181 180 180 180 179 178 179 178 175 175 174 170 172 173 172 172 168 167 169
203 207 202 199 194 189 190 192 196 201 204 206 204 205 203 194 202 197 152 170 206 213 224 256 251 225 198 206 229 240 231 211 206 201 199 201 198 204 210 201 195 198 201 203 203 203 204 205 206 204 202 200 198 196 193 194 195 194 193 191 189 189 189 186 185 187 188 187 185 183 182 183 182 181 181 177 173 173 170 172 176 173 172 170 169 169
207 205 196 195 195 193 195 197 197 200 205 211 211 207 200 189 195 198 177 196 216 213 210 242 249 206 185 205 209 216 226 216 212 209 204 201 196 199 205 199 198 198 200 204 205 206 208 208 209 207 205 204 203 200 195 194 197 197 194 194 192 190 191 191 188 188 190 191 190 186 182 182 184 181 180 178 176 176 175 176 180 176 173 173 173 168
208 208 200 196 197 195 197 202 201 200 205 214 212 206 206 201 200 210 217 218 222 211 189 228 248 200 177 184 183 191 206 211 217 214 208 210 204 200 197 195 202 199 196 201 205 209 212 212 212 210 208 207 206 204 199 196 197 198 198 197 194 192 192 193 193 191 191 192 191 189 185 182 182 180 180 181 181 180 180 180 179 176 174 174 174 168
199 194 192 193 194 196 200 203 201 200 205 210 200 200 208 213 215 219 221 226 236 246 227 218 236 236 188 160 160 182 168 180 210 213 211 214 212 205 199 196 201 202 198 201 206 211 214 215 215 214 211 210 209 207 204 200 198 200 201 200 197 195 193 194 196 196 193 192 191 190 189 185 180 181 184 184 184 185 185 182 177 175 176 174 173 170
194 189 186 188 192 199 202 201 199 199 205 209 197 197 205 211 218 222 221 226 234 249 239 209 202 238 208 160 147 138 130 135 176 208 221 218 213 205 200 199 197 200 202 202 207 213 216 218 219 217 215 213 211 211 209 205 202 202 202 203 201 198 195 194 196 198 196 193 191 191 192 190 185 184 187 186 187 188 187 183 178 176 176 175 174 173
199 196 190 185 193 204 204 201 201 200 203 213 216 202 205 210 214 217 218 222 224 231 232 209 196 227 201 150 152 103 107 117 112 153 218 223 222 211 203 203 199 201 204 202 204 208 213 218 221 220 219 217 214 214 212 209 208 205 204 205 205 202 199 195 195 198 199 196 194 193 192 193 191 189 190 189 190 191 189 186 181 175 173 173 174 174
197 197 194 190 195 198 196 198 203 202 202 212 217 200 199 203 205 211 212 214 219 225 227 214 202 223 207 119 127 111 114 148 134 151 184 192 210 208 205 207 205 205 204 204 205 203 203 210 217 220 221 220 218 217 215 213 212 210 208 208 208 206 203 199 197 198 200 200 198 195 193 195 196 195 194 192 192 193 191 189 184 177 173 170 171 170
186 189 195 201 200 188 181 192 203 206 205 206 204 193 188 185 188 201 201 204 217 223 221 211 199 222 222 119 102 97 144 186 168 174 182 179 192 197 198 203 209 209 204 204 208 205 200 201 209 216 219 220 220 220 217 214 214 213 211 210 209 210 207 203 200 199 201 202 201 199 197 197 197 198 198 195 193 195 194 193 191 184 176 171 169 167
178 179 190 205 206 198 196 201 202 202 202 202 199 192 187 179 181 197 195 197 216 220 211 203 199 214 201 121 104 96 213 224 213 198 190 184 188 191 193 196 204 209 207 207 208 206 204 202 205 212 216 218 220 222 219 216 215 213 212 211 210 212 211 208 205 202 202 202 203 203 201 200 199 199 200 199 196 197 199 198 198 193 184 176 172 171
169 173 187 193 200 201 201 204 199 194 197 199 196 192 192 186 183 197 195 194 208 207 194 191 198 201 160 120 120 151 237 247 246 221 199 189 191 191 194 195 199 204 205 208 212 213 211 207 207 210 214 217 220 222 222 219 217 214 212 212 211 212 213 212 209 206 204 202 203 204 204 204 202 200 201 203 201 200 202 203 203 200 194 185 181 181
172 171 181 184 189 189 191 200 198 189 195 198 196 196 200 205 199 195 196 196 196 193 183 182 200 207 177 147 140 170 229 249 243 231 210 190 190 192 197 196 197 203 205 205 208 213 215 212 209 210 213 216 218 221 222 221 220 217 213 211 211 211 213 214 213 211 208 203 202 205 206 206 205 204 203 204 205 204 204 207 208 206 201 194 190 190
178 151 168 182 188 180 186 197 189 177 191 195 196 202 208 213 213 209 205 196 192 189 180 182 193 182 156 143 131 144 175 199 184 273 237 206 198 198 199 197 197 201 207 211 211 209 210 213 212 210 211 215 216 218 221 222 223 221 216 212 210 211 213 215 216 214 212 207 204 204 207 207 207 207 207 206 207 207 207 209 210 211 209 202 197 197
180 131 160 181 189 185 188 192 190 188 188 187 195 204 207 206 207 219 200 186 196 197 181 184 169 128 143 143 117 138 149 175 187 174 245 254 245 225 208 201 205 204 205 209 211 209 207 208 211 210 210 212 214 215 218 221 224 224 221 216 213 212 212 214 216 216 215 213 208 205 206 209 209 210 211 209 208 209 209 209 210 212 213 210 205 202
184 129 148 167 172 185 186 186 193 198 189 180 197 202 200 203 213 231 214 181 197 200 175 186 174 146 166 173 141 188 186 184 196 200 213 235 248 237 210 199 207 212 212 209 206 206 206 205 207 207 208 209 210 212 215 219 224 225 225 223 220 218 215 214 214 216 216 215 213 208 207 208 210 210 212 211 210 211 211 210 210 213 215 215 213 209
184 134 140 160 160 162 168 175 189 202 203 196 203 199 197 206 208 218 224 188 195 206 180 187 181 153 165 158 126 205 203 200 210 210 212 221 219 216 208 203 204 205 213 216 210 205 204 205 205 204 205 206 206 207 211 215 218 222 223 224 224 223 221 218 216 217 217 217 215 212 209 208 209 210 212 212 212 213 213 212 212 213 215 218 219 216
194 178 145 155 164 152 148 163 167 194 209 208 214 204 202 213 205 204 217 207 202 211 188 185 184 149 114 105 73 197 205 207 214 213 215 216 209 203 199 208 216 207 205 209 210 208 206 205 203 201 202 204 204 204 206 209 210 213 217 220 223 225 224 221 219 218 218 218 218 216 212 210 209 210 212 214 214 214 214 215 215 215 215 218 222 221
190 211 165 149 167 166 153 166 156 144 182 202 212 203 198 213 216 206 213 216 226 226 199 194 185 138 117 135 82 65 191 202 203 207 216 216 212 211 207 209 222 222 210 202 202 204 204 203 202 203 204 204 203 202 203 205 205 206 210 214 219 223 224 222 220 219 218 218 220 219 216 213 212 212 213 215 215 214 215 216 217 218 217 219 221 224
177 208 186 158 158 160 164 178 176 168 160 163 186 189 190 207 212 208 206 210 228 250 230 209 170 126 133 149 111 77 160 196 195 194 206 215 219 220 218 223 228 229 225 208 197 196 194 193 197 203 207 207 206 202 201 204 205 206 208 211 214 219 222 222 222 221 220 219 220 220 218 217 214 214 215 216 217 216 216 218 219 220 220 221 222 224
171 177 168 148 140 147 164 171 175 179 175 170 174 179 187 206 210 220 226 207 211 230 253 229 162 127 146 140 112 89 99 185 215 202 204 219 234 234 228 234 239 241 239 221 204 199 193 190 193 198 201 204 206 204 201 202 206 208 209 210 212 217 220 221 223 224 223 222 222 221 221 220 217 215 216 218 219 218 219 220 221 222 224 224 224 226
159 159 140 128 130 143 156 159 167 170 163 165 185 181 187 194 201 221 257 203 205 210 224 229 183 134 151 144 126 112 90 74 260 230 242 240 251 260 251 247 247 249 247 230 212 207 201 195 194 195 195 194 199 204 202 199 203 207 208 210 211 214 217 219 222 225 225 225 225 224 223 222 221 219 217 218 219 219 221 222 223 225 226 226 228 229
147 160 159 152 152 161 164 170 179 169 142 125 150 176 187 191 199 217 225 202 210 205 212 234 190 135 148 145 133 129 103 76 50 309 273 265 268 275 272 260 254 249 249 236 216 211 208 202 197 195 193 190 192 199 200 197 200 203 205 207 210 211 212 215 219 223 225 225 226 226 225 225 225 224 220 220 221 221 221 223 224 226 227 228 230 231
159 170 183 196 195 179 180 178 166 159 148 137 133 158 182 185 187 205 211 209 216 192 196 244 138 131 139 142 141 134 119 107 77 25 317 308 285 284 285 277 263 245 243 237 220 212 209 206 203 199 196 194 193 195 196 195 198 201 202 203 206 209 210 211 214 220 223 223 225 227 227 227 227 227 225 223 223 222 222 224 225 226 227 229 231 232
183 189 211 247 273 93 74 127 154 153 146 144 135 127 160 179 173 177 209 211 200 168 133 97 125 138 137 142 149 139 138 155 152 121 57 3 325 300 295 292 286 271 256 243 227 217 211 209 208 204 201 197 195 196 197 196 195 197 200 201 203 207 210 210 211 216 219 220 222 225 227 228 229 230 230 228 226 225 224 225 227 227 227 228 231 233
174 197 219 232 245 247 281 169 171 167 161 161 163 146 150 174 159 135 194 181 168 174 154 128 136 147 146 146 150 147 152 167 170 154 139 51 1 329 316 312 307 299 288 271 247 226 215 211 210 210 207 201 198 200 202 202 199 197 197 198 199 203 207 209 210 213 215 216 218 221 224 226 229 230 232 232 230 228 226 226 227 229 229 229 231 233
157 179 201 202 221 225 223 209 189 184 188 186 190 196 196 189 162 123 147 157 143 107 150 150 145 143 148 155 160 160 157 158 165 165 154 126 32 357 339 331 320 313 309 296 279 261 233 216 212 213 212 207 204 205 207 207 205 202 200 199 201 203 204 207 209 210 212 214 214 217 220 223 226 229 231 233 233 231 230 229 229 230 231 231 231 233
150 172 184 165 170 200 208 208 199 200 207 204 214 221 218 212 200 196 188 172 161 112 134 158 156 147 156 169 173 174 165 153 159 160 145 132 80 22 343 338 325 316 318 315 303 294 281 246 219 213 213 211 210 210 212 212 210 208 205 203 205 207 209 210 210 209 211 213 213 213 216 218 222 226 229 231 233 233 232 232 232 232 233 234 233 233
152 188 178 148 148 194 197 202 208 215 216 214 231 234 226 225 221 216 211 196 187 171 167 177 174 175 192 196 195 195 182 164 165 163 155 152 134 28 298 308 316 309 307 311 311 302 299 297 270 230 217 214 213 212 214 214 214 213 211 206 204 208 212 214 213 210 211 213 213 212 214 215 218 222 226 228 229 231 232 233 235 235 234 235 236 236
171 192 172 155 174 190 179 190 206 215 228 232 233 230 223 218 207 197 202 202 189 179 194 198 194 205 213 210 214 220 211 191 181 173 169 173 172 195 267 275 278 287 283 285 298 298 294 292 283 259 232 220 216 214 215 216 217 217 215 210 206 208 213 216 216 215 215 215 214 213 214 215 215 218 222 225 226 228 230 231 233 235 236 236 236 237
176 166 163 187 198 179 182 190 158 216 242 220 207 215 214 203 196 193 205 213 204 190 189 198 205 213 215 214 222 228 227 225 216 197 185 185 186 194 223 254 262 261 257 259 268 276 284 283 269 254 240 231 224 218 218 220 221 221 220 215 211 210 212 215 216 217 216 216 216 215 214 215 215 215 218 222 224 226 227 228 230 234 235 235 236 237
179 163 168 202 194 173 186 172 155 242 228 177 190 214 205 194 202 198 200 216 214 201 191 192 205 217 218 217 223 227 230 237 238 230 218 205 198 202 219 242 258 260 257 252 249 251 260 266 263 252 241 236 231 227 225 224 225 226 225 221 217 214 214 216 218 217 214 214 217 218 216 215 216 216 217 219 222 225 226 226 229 232 233 233 234 236
167 169 176 193 194 182 185 192 224 230 179 173 215 235 213 200 205 197 202 219 215 202 198 201 209 217 218 218 222 225 227 235 241 243 239 228 216 217 226 238 248 251 253 250 249 253 254 255 258 257 249 239 229 226 227 227 229 231 230 227 223 218 215 216 219 219 216 213 214 216 216 215 216 218 219 220 222 226 228 227 228 230 231 232 234 236
168 183 187 190 199 195 193 205 218 195 174 218 245 247 222 217 212 201 225 246 232 202 191 208 221 219 218 223 226 222 221 228 235 242 243 239 233 227 228 233 237 239 240 242 247 255 259 261 264 266 263 252 237 227 224 224 228 232 234 235 231 224 220 218 216 217 216 213 211 212 214 214 215 217 219 221 223 226 228 229 229 229 230 232 235 238
171 172 191 202 204 211 221 220 218 242 247 234 237 238 227 224 218 202 215 248 244 215 185 202 228 228 220 226 230 224 223 225 227 237 241 240 240 237 230 229 232 233 234 236 240 244 250 262 272 276 275 267 254 244 235 229 229 229 231 237 238 234 229 224 222 223 221 216 212 211 212 214 215 216 218 220 223 226 228 230 230 230 231 232 234 237
177 175 190 205 212 228 251 248 234 246 233 201 216 243 248 239 238 231 226 238 243 239 221 211 230 236 224 226 235 230 228 226 225 238 242 240 240 241 236 231 230 230 232 234 234 236 241 249 260 272 280 279 269 256 248 242 240 235 231 231 234 237 236 232 233 236 231 222 219 218 217 216 216 216 217 219 222 225 227 229 231 232 233 234 236 238
194 190 196 213 237 241 249 254 245 246 224 210 232 260 262 248 246 249 249 238 235 245 249 235 230 236 227 228 241 233 225 222 227 240 245 242 237 238 239 236 232 229 231 232 231 232 235 240 244 252 265 275 281 272 260 253 249 249 245 234 229 231 232 231 234 239 232 222 220 221 223 224 223 219 218 220 223 225 227 229 230 232 233 235 238 240
212 210 215 230 244 240 241 255 256 246 243 248 255 262 258 250 238 235 243 230 224 240 254 242 233 239 240 245 248 235 220 216 221 230 238 238 236 236 238 240 238 233 231 231 230 231 233 236 241 244 248 255 263 268 267 262 255 247 244 242 234 226 223 226 231 233 227 221 219 218 220 225 229 229 227 227 227 227 228 230 231 233 235 236 237 239
214 219 227 236 242 238 235 249 258 251 257 268 271 265 257 250 228 223 231 228 223 234 251 242 238 245 251 254 252 242 236 235 231 231 234 238 241 242 242 243 243 240 237 235 232 232 233 235 239 242 245 249 251 253 256 258 256 249 240 243 240 221 206 211 223 226 222 218 218 219 218 220 224 228 232 236 237 233 231 231 232 235 237 238 239 239
216 220 227 230 234 239 238 245 256 255 256 267 274 263 248 233 223 229 233 235 239 246 254 258 261 261 260 259 255 251 252 253 248 245 244 245 247 247 246 247 248 247 245 242 238 236 235 235 238 241 244 247 250 251 250 248 249 248 245 247 246 229 206 195 199 211 215 214 213 215 218 219 220 223 227 233 239 240 237 235 236 238 241 243 243 242
217 217 225 223 218 224 232 239 249 245 245 256 272 265 247 231 226 233 239 246 256 259 260 264 267 263 261 261 260 260 260 261 260 259 256 253 252 250 247 246 248 249 249 249 247 244 241 237 238 241 244 246 249 251 252 250 247 245 242 241 242 239 230 216 197 193 205 210 208 209 213 217 221 224 225 228 233 237 239 239 240 242 245 246 245 244
225 223 224 221 218 221 223 226 226 226 242 263 272 257 248 240 237 241 246 253 260 261 261 262 261 261 261 261 262 264 265 266 267 267 265 263 259 256 253 249 247 247 248 249 250 250 249 245 241 240 242 245 247 249 251 252 251 249 245 240 236 238 243 238 222 207 206 209 209 211 214 216 220 225 228 228 230 234 238 239 240 242 245 247 247 246
233 230 225 225 235 236 225 222 235 245 262 276 271 254 250 252 252 253 255 256 258 260 261 260 260 261 262 261 262 265 266 267 269 269 270 270 267 264 261 257 253 250 248 248 248 249 250 251 249 245 243 243 245 247 249 250 251 251 249 246 241 238 239 239 234 228 224 216 205 199 207 217 222 225 228 230 232 235 238 238 238 239 240 242 245 248
240 239 235 237 248 251 244 244 253 259 267 272 268 262 260 261 262 263 262 261 262 262 262 262 263 264 265 265 265 267 268 268 269 269 270 271 271 270 268 265 262 258 254 252 251 249 249 250 251 250 248 246 245 245 247 248 249 250 251 250 245 240 238 237 235 237 240 236 222 210 206 211 222 230 232 234 236 237 237 237 236 235 236 238 243 248
251 251 248 247 250 255 259 261 262 263 264 267 268 268 267 267 267 267 267 266 266 266 265 265 264 264 265 267 267 268 270 271 271 271 271 271 271 272 271 270 268 265 261 258 255 254 252 250 250 250 251 250 248 246 245 246 248 248 249 249 248 244 240 238 237 238 240 239 236 230 219 209 216 232 237 239 239 237 235 235 235 236 238 241 243 244
252 252 250 250 252 256 260 263 266 269 266 265 267 268 269 270 270 269 270 270 270 271 272 270 268 268 268 269 269 270 270 271 272 273 273 272 272 272 272 272 271 269 266 263 260 258 257 255 252 251 250 251 252 250 247 245 246 247 247 247 248 247 243 241 241 241 241 239 237 237 233 220 218 228 236 237 236 233 232 234 236 237 236 236 237 239
247 250 251 254 258 261 263 265 271 272 270 272 274 269 263 265 270 270 272 274 274 276 276 275 275 275 273 272 273 272 272 273 274 274 274 274 275 275 274 274 273 271 270 268 265 263 261 260 258 255 252 251 252 253 252 248 246 247 247 245 246 247 246 245 244 242 241 241 240 241 241 238 232 230 232 234 230 225 223 226 232 234 233 231 232 233
250 253 255 256 257 259 262 264 266 264 263 272 279 270 257 261 272 274 273 276 279 280 281 281 280 279 277 276 275 275 276 277 276 277 277 277 277 278 278 277 276 274 272 269 267 266 264 263 262 259 256 253 251 252 253 252 249 248 248 247 245 246 246 247 247 246 245 244 243 241 240 243 243 238 235 237 234 226 221 218 221 225 228 231 234 233
256 257 257 255 251 249 253 256 260 259 251 248 255 255 253 264 274 275 274 278 280 281 282 284 284 282 281 280 279 280 281 280 279 279 278 278 279 279 279 278 277 276 275 273 270 268 266 265 264 262 260 257 253 251 251 252 251 250 249 249 247 246 246 247 247 248 249 249 248 245 242 242 243 241 241 245 244 239 234 228 223 221 220 225 234 236
Height
3148 3150 3151 3151 3153 3155 3157 3160 3162 3162 3162 3163 3165 3167 3169 3169 3170 3172 3172 3172 3173 3174 3174 3175 3176 3176 3175 3175 3176 3177 3178 3180 3181 3182 3184 3185 3187 3188 3190 3192 3194 3196 3198 3199 3201 3203 3205 3206 3207 3208 3210 3211 3213 3214 3216 3217 3218 3220 3221 3222 3224 3225 3226 3227 3228 3230 3231 3232 3234 3235 3236 3237 3238 3239 3240 3241 3242 3243 3244 3244 3245 3245 3246 3246 3247 3247
3147 3149 3150 3151 3154 3156 3157 3159 3161 3161 3161 3163 3165 3166 3168 3169 3170 3171 3172 3172 3173 3174 3175 3175 3176 3176 3177 3177 3177 3177 3178 3179 3181 3182 3183 3185 3186 3188 3189 3191 3193 3195 3197 3198 3199 3201 3203 3205 3206 3208 3209 3211 3213 3214 3216 3217 3218 3219 3220 3222 3223 3225 3226 3227 3228 3230 3231 3232 3234 3235 3237 3238 3239 3240 3241 3242 3243 3243 3244 3245 3245 3246 3247 3247 3247 3248
3146 3148 3150 3152 3153 3155 3156 3158 3159 3160 3162 3163 3165 3166 3167 3168 3169 3170 3171 3172 3173 3174 3175 3175 3176 3177 3177 3177 3177 3177 3178 3179 3180 3181 3183 3184 3185 3187 3188 3189 3191 3193 3195 3197 3198 3200 3202 3204 3205 3207 3209 3210 3212 3214 3215 3216 3218 3219 3220 3221 3223 3225 3226 3227 3228 3230 3231 3232 3234 3235 3237 3238 3239 3240 3241 3242 3243 3244 3244 3245 3246 3247 3247 3248 3248 3248
3145 3147 3149 3151 3151 3153 3155 3157 3158 3160 3162 3163 3164 3165 3166 3167 3169 3169 3170 3171 3172 3174 3174 3175 3176 3176 3177 3177 3177 3177 3177 3178 3179 3180 3181 3183 3184 3185 3187 3188 3189 3191 3193 3195 3197 3199 3200 3202 3204 3206 3208 3210 3211 3213 3214 3216 3217 3219 3220 3221 3223 3224 3226 3227 3228 3230 3231 3232 3233 3235 3237 3238 3239 3240 3241 3242 3243 3244 3245 3246 3246 3247 3248 3248 3249 3249
3146 3147 3148 3148 3150 3153 3155 3156 3158 3160 3161 3163 3164 3165 3165 3167 3168 3168 3169 3171 3172 3173 3173 3174 3174 3174 3175 3176 3176 3176 3176 3177 3178 3178 3179 3181 3182 3184 3185 3186 3187 3189 3191 3193 3196 3197 3199 3201 3203 3205 3207 3209 3210 3212 3214 3215 3217 3218 3220 3221 3222 3224 3226 3227 3228 3229 3230 3232 3233 3235 3236 3238 3239 3240 3241 3242 3243 3244 3245 3246 3247 3247 3248 3249 3249 3249
3145 3145 3145 3147 3150 3153 3155 3156 3157 3159 3161 3162 3162 3163 3165 3166 3167 3168 3169 3170 3172 3172 3172 3174 3172 3171 3174 3176 3176 3176 3175 3176 3177 3177 3178 3179 3180 3182 3183 3184 3186 3188 3190 3192 3195 3196 3198 3200 3201 3204 3206 3208 3210 3211 3213 3215 3216 3218 3219 3220 3222 3223 3225 3226 3227 3228 3230 3231 3233 3235 3236 3238 3239 3240 3241 3242 3243 3244 3245 3246 3247 3247 3248 3249 3250 3250
3144 3143 3144 3147 3149 3152 3154 3155 3156 3158 3160 3160 3160 3162 3163 3165 3166 3168 3169 3170 3170 3169 3170 3172 3170 3168 3172 3175 3176 3175 3175 3175 3176 3177 3178 3178 3179 3180 3182 3184 3185 3187 3189 3191 3193 3195 3196 3198 3200 3202 3205 3207 3209 3211 3212 3214 3216 3217 3219 3220 3221 3223 3224 3226 3227 3228 3229 3231 3233 3235 3236 3237 3239 3240 3241 3242 3243 3244 3245 3246 3246 3247 3248 3249 3250 3250
3141 3142 3143 3146 3149 3151 3152 3154 3155 3157 3159 3159 3159 3161 3163 3165 3166 3167 3169 3169 3169 3169 3169 3171 3171 3169 3169 3172 3174 3174 3175 3175 3176 3176 3177 3178 3178 3179 3181 3183 3184 3185 3188 3190 3192 3193 3195 3197 3199 3201 3204 3206 3208 3210 3211 3213 3215 3216 3218 3219 3221 3222 3223 3225 3226 3228 3229 3231 3232 3234 3236 3237 3238 3240 3241 3242 3243 3244 3245 3245 3246 3247 3248 3249 3250 3250
3140 3141 3143 3145 3148 3149 3151 3152 3154 3155 3158 3158 3158 3160 3163 3164 3166 3167 3168 3169 3169 3170 3169 3169 3171 3170 3167 3170 3173 3173 3175 3176 3176 3176 3177 3178 3178 3179 3181 3182 3183 3185 3187 3190 3191 3192 3194 3196 3198 3200 3203 3205 3207 3209 3211 3212 3214 3215 3217 3219 3220 3221 3223 3224 3226 3227 3229 3230 3232 3233 3235 3236 3237 3239 3240 3241 3242 3243 3244 3245 3246 3247 3248 3249 3250 3250
3139 3141 3143 3145 3147 3148 3150 3152 3153 3154 3156 3158 3157 3159 3162 3163 3165 3166 3167 3168 3169 3169 3167 3166 3169 3167 3165 3169 3173 3173 3175 3175 3175 3176 3177 3177 3178 3179 3180 3182 3183 3184 3186 3188 3189 3191 3193 3194 3197 3199 3202 3204 3206 3208 3210 3212 3213 3214 3216 3217 3219 3220 3222 3223 3225 3227 3228 3229 3231 3232 3234 3236 3237 3238 3240 3241 3242 3243 3244 3245 3246 3247 3248 3249 3249 3250
3137 3139 3142 3143 3145 3146 3148 3151 3152 3153 3155 3157 3157 3159 3161 3163 3165 3166 3166 3168 3167 3166 3164 3165 3168 3166 3164 3169 3173 3172 3173 3173 3174 3175 3175 3176 3177 3178 3179 3180 3182 3183 3184 3186 3188 3189 3191 3193 3196 3198 3200 3202 3204 3206 3208 3210 3212 3213 3215 3216 3218 3219 3221 3223 3224 3226 3227 3228 3230 3231 3233 3235 3236 3238 3239 3240 3242 3243 3244 3245 3246 3247 3247 3248 3249 3250
3137 3138 3140 3141 3142 3144 3147 3149 3150 3152 3154 3155 3157 3158 3160 3161 3164 3165 3166 3167 3165 3161 3161 3164 3166 3165 3164 3168 3171 3171 3170 3170 3171 3172 3173 3174 3175 3176 3177 3179 3180 3181 3183 3185 3186 3187 3189 3191 3193 3195 3198 3200 3202 3204 3206 3208 3210 3212 3214 3215 3217 3218 3220 3221 3223 3225 3226 3228 3229 3231 3232 3234 3235 3237 3239 3240 3241 3242 3244 3245 3246 3246 3247 3248 3249 3250
3137 3138 3138 3139 3141 3143 3146 3148 3149 3150 3152 3154 3155 3156 3157 3158 3161 3162 3161 3163 3162 3159 3160 3162 3165 3165 3164 3167 3170 3169 3168 3169 3170 3171 3171 3172 3173 3174 3175 3177 3178 3180 3182 3183 3184 3185 3187 3189 3191 3193 3196 3198 3199 3202 3204 3207 3209 3210 3212 3214 3216 3217 3219 3221 3222 3224 3225 3227 3229 3230 3231 3233 3234 3236 3238 3239 3240 3242 3243 3244 3245 3246 3247 3248 3248 3249
3135 3137 3138 3139 3140 3141 3144 3146 3147 3148 3149 3151 3152 3153 3152 3152 3155 3157 3156 3157 3158 3158 3160 3162 3163 3163 3163 3166 3167 3167 3167 3167 3168 3169 3170 3171 3172 3173 3174 3175 3177 3178 3180 3182 3183 3184 3186 3188 3190 3192 3194 3196 3198 3200 3203 3205 3207 3209 3211 3213 3215 3216 3218 3220 3221 3223 3224 3226 3228 3229 3231 3232 3233 3235 3237 3238 3239 3241 3242 3244 3245 3246 3246 3247 3248 3249
3131 3134 3136 3137 3138 3139 3141 3142 3143 3145 3147 3149 3150 3151 3150 3149 3150 3151 3151 3152 3153 3155 3159 3162 3161 3160 3162 3165 3166 3166 3166 3166 3167 3168 3168 3169 3170 3172 3173 3174 3175 3177 3178 3180 3181 3183 3185 3187 3189 3191 3193 3194 3196 3198 3201 3203 3205 3207 3209 3211 3213 3215 3217 3218 3220 3222 3223 3225 3227 3228 3229 3231 3232 3234 3235 3237 3238 3240 3241 3243 3244 3245 3246 3247 3247 3248
3129 3131 3132 3134 3136 3137 3139 3140 3142 3144 3145 3147 3149 3150 3149 3148 3148 3147 3146 3148 3150 3151 3155 3158 3159 3158 3160 3163 3165 3165 3166 3166 3166 3167 3167 3168 3169 3170 3171 3172 3173 3175 3177 3178 3179 3180 3182 3185 3188 3190 3191 3193 3195 3197 3199 3201 3203 3205 3208 3210 3212 3214 3216 3217 3219 3221 3222 3224 3225 3227 3228 3230 3231 3233 3234 3236 3237 3239 3240 3242 3243 3245 3246 3246 3247 3248
3129 3130 3132 3134 3135 3137 3138 3139 3141 3143 3143 3145 3147 3147 3147 3147 3148 3148 3147 3148 3149 3148 3150 3154 3156 3159 3161 3163 3165 3165 3165 3165 3166 3166 3167 3167 3168 3169 3170 3171 3171 3172 3174 3175 3176 3178 3180 3183 3185 3188 3190 3192 3193 3195 3197 3199 3201 3204 3207 3209 3211 3212 3214 3216 3218 3220 3221 3223 3224 3225 3227 3229 3230 3232 3233 3235 3236 3238 3239 3240 3242 3244 3245 3246 3246 3247
3128 3130 3132 3134 3135 3136 3137 3139 3141 3141 3142 3144 3145 3145 3146 3148 3149 3148 3147 3147 3148 3146 3147 3150 3153 3157 3160 3161 3163 3163 3163 3164 3165 3166 3167 3167 3167 3168 3168 3169 3170 3171 3172 3172 3174 3176 3178 3180 3182 3185 3187 3190 3192 3194 3196 3198 3200 3203 3205 3207 3209 3211 3213 3214 3216 3218 3220 3221 3223 3224 3226 3227 3229 3231 3232 3234 3235 3236 3238 3239 3241 3242 3244 3245 3246 3246
3128 3130 3132 3134 3135 3136 3137 3139 3140 3141 3141 3142 3143 3143 3145 3146 3147 3148 3145 3144 3145 3144 3143 3146 3150 3155 3158 3159 3161 3161 3161 3162 3163 3164 3165 3166 3167 3167 3168 3168 3169 3170 3171 3171 3172 3174 3175 3178 3180 3182 3185 3187 3190 3192 3195 3197 3199 3201 3203 3206 3207 3209 3211 3213 3215 3216 3218 3220 3222 3223 3225 3226 3228 3230 3231 3232 3233 3235 3236 3238 3240 3241 3243 3244 3245 3246
3129 3129 3131 3134 3135 3136 3137 3138 3139 3140 3140 3141 3142 3142 3144 3144 3144 3145 3144 3142 3142 3140 3140 3145 3150 3154 3158 3160 3160 3160 3160 3161 3162 3163 3164 3165 3166 3166 3167 3167 3168 3169 3169 3170 3171 3172 3174 3176 3178 3180 3182 3184 3187 3190 3193 3195 3197 3199 3201 3203 3205 3207 3209 3211 3213 3215 3216 3218 3220 3222 3224 3225 3227 3228 3230 3231 3232 3233 3235 3237 3238 3240 3241 3243 3244 3245
3130 3129 3129 3132 3135 3135 3136 3136 3136 3138 3139 3140 3141 3141 3143 3143 3143 3143 3143 3142 3141 3137 3136 3141 3147 3152 3157 3159 3160 3160 3159 3160 3161 3161 3163 3164 3165 3165 3166 3166 3167 3168 3168 3169 3170 3171 3173 3175 3177 3179 3181 3183 3184 3187 3190 3193 3195 3198 3199 3201 3203 3205 3207 3209 3211 3212 3214 3216 3218 3220 3222 3224 3225 3227 3228 3230 3231 3232 3234 3235 3236 3238 3239 3241 3242 3243
3129 3129 3129 3131 3134 3134 3135 3134 3135 3136 3137 3138 3139 3140 3141 3142 3142 3142 3140 3141 3142 3139 3135 3136 3143 3152 3156 3157 3159 3159 3158 3158 3159 3160 3161 3162 3163 3164 3165 3165 3166 3166 3167 3168 3168 3169 3171 3173 3175 3177 3180 3181 3182 3184 3188 3191 3193 3195 3197 3199 3201 3203 3205 3207 3209 3210 3212 3214 3216 3218 3220 3222 3223 3225 3227 3228 3229 3231 3232 3233 3235 3236 3237 3239 3240 3242
3128 3130 3130 3131 3132 3133 3133 3133 3135 3135 3136 3137 3138 3139 3140 3141 3142 3141 3138 3139 3141 3141 3140 3137 3143 3154 3156 3156 3159 3159 3157 3158 3158 3159 3160 3161 3162 3162 3163 3164 3165 3165 3166 3167 3168 3168 3169 3171 3173 3175 3177 3179 3181 3183 3186 3188 3191 3193 3195 3197 3199 3201 3203 3205 3207 3208 3210 3212 3214 3216 3219 3220 3222 3223 3225 3226 3228 3229 3231 3232 3233 3234 3235 3237 3238 3240
3129 3130 3131 3132 3133 3133 3134 3134 3135 3135 3136 3138 3138 3138 3139 3140 3140 3140 3139 3139 3139 3140 3142 3139 3142 3152 3155 3155 3159 3159 3158 3158 3157 3158 3159 3159 3160 3161 3162 3163 3163 3164 3165 3166 3167 3168 3168 3170 3170 3172 3174 3176 3179 3182 3183 3185 3188 3190 3193 3195 3197 3199 3201 3203 3204 3206 3208 3211 3213 3215 3216 3218 3220 3221 3223 3224 3226 3228 3229 3231 3231 3232 3234 3235 3236 3238
3129 3129 3130 3130 3131 3133 3135 3135 3135 3135 3136 3138 3137 3137 3138 3138 3139 3140 3140 3141 3139 3140 3142 3138 3140 3150 3153 3154 3158 3159 3158 3158 3157 3157 3158 3158 3159 3160 3160 3162 3162 3163 3164 3165 3165 3166 3167 3168 3169 3170 3172 3173 3175 3178 3181 3183 3185 3188 3190 3192 3195 3197 3198 3200 3202 3203 3206 3208 3211 3212 3214 3216 3218 3219 3221 3223 3224 3226 3228 3229 3230 3231 3232 3233 3234 3235
3129 3129 3129 3128 3127 3128 3130 3131 3132 3134 3136 3136 3136 3136 3137 3137 3138 3140 3140 3141 3140 3141 3143 3141 3143 3149 3153 3155 3158 3159 3158 3158 3157 3157 3157 3158 3158 3158 3159 3160 3161 3162 3163 3163 3164 3165 3166 3167 3168 3169 3170 3172 3173 3175 3177 3180 3182 3185 3187 3189 3192 3193 3195 3197 3199 3201 3203 3206 3208 3210 3212 3214 3216 3217 3219 3221 3223 3224 3225 3227 3228 3229 3230 3231 3232 3233
3128 3129 3129 3128 3127 3127 3129 3130 3131 3133 3136 3136 3136 3136 3137 3137 3138 3139 3140 3140 3140 3142 3144 3144 3146 3150 3153 3155 3157 3157 3157 3157 3157 3157 3157 3157 3157 3158 3158 3158 3159 3160 3161 3162 3163 3164 3164 3166 3167 3168 3169 3170 3172 3173 3174 3176 3178 3181 3184 3186 3188 3190 3191 3194 3196 3198 3200 3203 3205 3207 3209 3211 3213 3215 3217 3219 3220 3222 3223 3225 3226 3227 3228 3229 3230 3231
3128 3129 3129 3129 3129 3129 3130 3131 3132 3133 3135 3136 3136 3137 3137 3137 3138 3140 3140 3140 3141 3142 3143 3146 3148 3150 3152 3155 3155 3155 3156 3156 3157 3157 3157 3157 3157 3157 3157 3157 3157 3158 3159 3161 3162 3162 3163 3164 3165 3166 3167 3168 3170 3170 3172 3173 3175 3176 3178 3181 3184 3186 3188 3191 3193 3195 3197 3200 3202 3204 3206 3209 3211 3213 3215 3216 3218 3219 3221 3222 3223 3225 3226 3227 3228 3229
3128 3129 3128 3129 3129 3129 3130 3131 3132 3133 3134 3135 3136 3136 3137 3137 3138 3139 3140 3140 3142 3142 3143 3145 3147 3150 3152 3153 3153 3154 3155 3155 3156 3156 3156 3157 3157 3157 3157 3157 3157 3157 3158 3159 3160 3161 3162 3163 3163 3164 3165 3166 3168 3168 3169 3171 3173 3174 3176 3179 3181 3183 3185 3187 3189 3191 3194 3196 3198 3201 3203 3206 3207 3209 3211 3213 3215 3217 3218 3220 3221 3222 3223 3224 3226 3227
3127 3128 3128 3129 3130 3129 3130 3130 3131 3132 3133 3134 3135 3135 3136 3137 3138 3139 3140 3141 3142 3143 3144 3145 3147 3149 3151 3151 3151 3152 3154 3154 3155 3155 3156 3156 3156 3157 3157 3157 3157 3157 3157 3157 3158 3159 3160 3161 3162 3162 3163 3164 3165 3166 3168 3169 3170 3172 3174 3176 3179 3181 3183 3184 3186 3188 3190 3192 3195 3197 3200 3202 3204 3206 3208 3210 3212 3214 3216 3217 3218 3219 3221 3222 3223 3224
3127 3127 3127 3129 3130 3130 3130 3130 3131 3131 3132 3133 3134 3134 3135 3136 3137 3139 3140 3141 3142 3144 3145 3145 3147 3148 3148 3148 3150 3151 3152 3153 3154 3154 3155 3155 3156 3156 3156 3156 3157 3157 3156 3156 3157 3158 3159 3159 3160 3161 3161 3162 3163 3164 3165 3167 3168 3169 3171 3173 3176 3178 3180 3182 3184 3186 3187 3189 3191 3194 3196 3198 3200 3203 3205 3207 3209 3210 3212 3214 3215 3216 3217 3219 3220 3222
3126 3127 3127 3128 3130 3130 3130 3130 3131 3131 3132 3133 3134 3134 3134 3136 3137 3138 3139 3140 3142 3143 3144 3146 3147 3147 3147 3147 3149 3150 3151 3152 3153 3153 3154 3154 3155 3155 3156 3156 3156 3156 3156 3156 3156 3157 3157 3158 3159 3159 3160 3160 3161 3162 3163 3164 3165 3166 3168 3170 3172 3175 3177 3179 3181 3184 3185 3186 3188 3190 3192 3194 3197 3199 3201 3203 3205 3207 3209 3210 3211 3212 3214 3216 3217 3218
3126 3127 3128 3128 3129 3129 3129 3130 3131 3132 3132 3131 3132 3132 3133 3134 3136 3136 3137 3138 3139 3142 3144 3146 3145 3144 3145 3147 3148 3148 3149 3150 3151 3152 3153 3153 3154 3155 3155 3156 3156 3156 3156 3156 3156 3157 3157 3157 3157 3158 3158 3159 3159 3160 3161 3162 3163 3164 3165 3167 3169 3171 3173 3175 3177 3179 3181 3183 3185 3187 3189 3191 3193 3195 3197 3199 3201 3203 3204 3206 3207 3208 3210 3212 3213 3214
3125 3126 3128 3128 3128 3129 3129 3129 3130 3130 3129 3128 3129 3130 3131 3132 3134 3135 3136 3136 3137 3139 3141 3142 3141 3141 3144 3146 3146 3147 3148 3148 3149 3150 3151 3152 3153 3154 3154 3155 3155 3156 3155 3155 3156 3156 3156 3157 3157 3157 3157 3157 3158 3158 3159 3160 3160 3161 3162 3164 3165 3167 3169 3171 3172 3174 3177 3180 3182 3184 3186 3188 3189 3191 3193 3195 3197 3198 3200 3202 3203 3205 3206 3207 3208 3209
3125 3126 3127 3127 3128 3128 3128 3129 3130 3128 3126 3126 3128 3129 3130 3131 3132 3133 3134 3134 3135 3137 3138 3139 3138 3139 3141 3143 3143 3145 3146 3147 3147 3148 3149 3150 3152 3153 3153 3154 3154 3155 3155 3155 3155 3155 3155 3156 3156 3157 3156 3156 3156 3156 3157 3158 3158 3159 3160 3161 3162 3164 3166 3167 3168 3170 3172 3174 3177 3179 3182 3183 3185 3187 3190 3191 3193 3194 3196 3198 3200 3201 3203 3204 3204 3205
3125 3126 3127 3127 3127 3128 3127 3128 3127 3125 3125 3127 3127 3128 3129 3130 3131 3132 3133 3133 3133 3135 3137 3138 3137 3137 3138 3140 3141 3143 3144 3145 3146 3147 3147 3148 3150 3151 3152 3153 3153 3154 3154 3154 3154 3154 3154 3154 3155 3155 3155 3155 3155 3155 3155 3156 3156 3157 3158 3159 3159 3161 3162 3163 3165 3166 3167 3168 3171 3174 3176 3179 3181 3184 3186 3188 3190 3191 3193 3195 3197 3198 3199 3200 3201 3202
3123 3125 3126 3126 3126 3126 3126 3125 3125 3125 3126 3126 3126 3127 3128 3129 3130 3131 3133 3132 3132 3132 3135 3136 3136 3135 3137 3138 3139 3140 3142 3144 3146 3146 3145 3146 3147 3148 3150 3151 3152 3152 3153 3153 3153 3153 3153 3153 3153 3153 3154 3154 3154 3154 3154 3154 3155 3155 3156 3157 3157 3158 3159 3160 3161 3161 3162 3164 3167 3169 3171 3174 3177 3179 3182 3184 3186 3188 3189 3191 3193 3194 3195 3196 3197 3199
3122 3123 3124 3125 3125 3125 3125 3124 3124 3125 3125 3124 3124 3125 3126 3127 3128 3129 3131 3132 3130 3130 3132 3134 3134 3134 3135 3137 3138 3139 3141 3144 3146 3145 3144 3144 3145 3145 3147 3148 3149 3150 3151 3151 3152 3152 3152 3152 3153 3153 3153 3153 3153 3154 3154 3153 3153 3154 3154 3154 3155 3156 3156 3157 3158 3158 3159 3162 3165 3168 3169 3171 3173 3176 3178 3180 3182 3184 3186 3187 3189 3190 3191 3193 3194 3195
3122 3122 3123 3124 3125 3125 3125 3124 3123 3123 3123 3123 3123 3124 3124 3126 3126 3128 3130 3129 3127 3127 3129 3132 3132 3132 3133 3134 3135 3137 3140 3144 3146 3143 3141 3143 3143 3143 3144 3145 3146 3148 3149 3149 3150 3150 3151 3151 3152 3152 3152 3152 3152 3153 3153 3153 3152 3152 3152 3152 3153 3153 3153 3154 3155 3156 3158 3160 3163 3166 3168 3170 3172 3173 3174 3176 3178 3180 3182 3183 3185 3186 3187 3189 3190 3191
3122 3122 3123 3124 3124 3124 3124 3123 3122 3123 3122 3122 3122 3123 3123 3124 3126 3128 3128 3125 3124 3125 3127 3129 3130 3130 3130 3131 3133 3135 3138 3141 3141 3139 3138 3140 3141 3141 3141 3142 3143 3144 3145 3146 3147 3148 3149 3149 3150 3150 3151 3151 3151 3152 3152 3152 3152 3152 3151 3151 3151 3151 3151 3152 3153 3154 3155 3157 3159 3161 3164 3167 3170 3171 3172 3174 3175 3177 3178 3179 3181 3182 3183 3184 3186 3187
3121 3122 3122 3123 3123 3123 3123 3122 3122 3122 3121 3120 3120 3121 3122 3123 3125 3126 3125 3122 3122 3123 3125 3126 3127 3127 3128 3128 3130 3132 3133 3134 3135 3135 3136 3138 3139 3139 3139 3139 3140 3141 3142 3143 3144 3145 3146 3147 3147 3148 3148 3149 3150 3150 3150 3151 3151 3151 3151 3150 3149 3149 3149 3150 3150 3151 3152 3153 3156 3158 3160 3162 3165 3167 3169 3171 3172 3173 3175 3175 3177 3178 3179 3180 3182 3183
3121 3121 3121 3121 3121 3121 3121 3121 3121 3121 3119 3118 3118 3119 3120 3122 3124 3122 3121 3120 3121 3122 3123 3124 3125 3126 3126 3127 3128 3129 3129 3129 3131 3132 3133 3134 3135 3136 3137 3138 3138 3138 3139 3140 3141 3142 3143 3144 3144 3145 3146 3146 3147 3148 3149 3149 3150 3150 3150 3150 3149 3149 3148 3148 3149 3150 3150 3151 3152 3155 3156 3158 3160 3162 3164 3166 3168 3169 3171 3171 3173 3174 3175 3177 3178 3179
3119 3119 3119 3119 3119 3120 3120 3120 3120 3119 3117 3117 3117 3117 3118 3120 3120 3119 3118 3119 3119 3120 3121 3122 3122 3123 3124 3125 3125 3126 3126 3126 3127 3128 3129 3130 3131 3132 3134 3135 3135 3136 3136 3137 3137 3138 3139 3140 3141 3142 3143 3143 3144 3145 3146 3147 3147 3148 3149 3149 3149 3149 3148 3148 3148 3148 3149 3149 3149 3150 3151 3153 3156 3158 3159 3161 3163 3164 3166 3167 3169 3170 3172 3173 3174 3176
3117 3117 3117 3117 3117 3118 3118 3118 3117 3116 3115 3115 3116 3117 3117 3117 3116 3116 3117 3117 3117 3117 3117 3118 3119 3119 3120 3121 3122 3122 3123 3123 3123 3123 3124 3126 3127 3128 3129 3131 3132 3133 3133 3134 3134 3134 3135 3136 3137 3138 3139 3140 3141 3142 3142 3143 3144 3145 3146 3147 3148 3148 3148 3147 3147 3146 3147 3147 3147 3148 3149 3150 3152 3154 3155 3157 3158 3160 3162 3163 3165 3167 3169 3170 3171 3172
3114 3114 3115 3115 3115 3115 3115 3115 3114 3114 3113 3113 3114 3114 3114 3113 3113 3114 3115 3115 3114 3114 3114 3115 3115 3116 3117 3118 3118 3119 3119 3119 3119 3119 3120 3121 3122 3123 3124 3126 3127 3128 3129 3130 3130 3131 3131 3132 3133 3134 3135 3136 3137 3138 3139 3140 3141 3142 3143 3144 3146 3147 3147 3147 3146 3146 3145 3145 3146 3146 3147 3148 3149 3150 3151 3153 3155 3156 3158 3159 3160 3162 3164 3165 3166 3167
3111 3112 3113 3113 3113 3112 3112 3112 3112 3112 3112 3111 3111 3111 3111 3111 3111 3111 3111 3112 3112 3112 3112 3112 3113 3113 3113 3114 3115 3115 3115 3115 3115 3115 3115 3116 3116 3118 3119 3120 3122 3124 3125 3125 3126 3126 3127 3128 3129 3130 3131 3132 3133 3134 3135 3136 3137 3138 3139 3141 3142 3143 3144 3145 3145 3145 3145 3145 3144 3144 3144 3145 3147 3147 3148 3149 3151 3152 3154 3155 3156 3158 3159 3161 3161 3163
3109 3110 3110 3111 3110 3110 3110 3110 3109 3110 3110 3109 3109 3109 3108 3109 3109 3109 3109 3109 3109 3108 3109 3109 3110 3110 3110 3110 3111 3111 3112 3112 3111 3112 3112 3112 3112 3112 3113 3115 3116 3118 3119 3120 3121 3121 3122 3123 3124 3125 3126 3127 3128 3129 3131 3132 3133 3134 3135 3137 3138 3139 3141 3142 3143 3144 3143 3143 3143 3143 3142 3143 3144 3145 3146 3146 3147 3148 3150 3151 3152 3154 3155 3156 3157 3158
3107 3107 3108 3108 3107 3108 3108 3108 3107 3107 3107 3107 3107 3107 3106 3106 3106 3106 3106 3106 3106 3106 3106 3106 3107 3107 3107 3107 3107 3107 3108 3108 3108 3108 3108 3108 3108 3108 3108 3109 3110 3111 3113 3114 3115 3116 3116 3117 3118 3120 3121 3122 3123 3124 3125 3127 3128 3129 3130 3132 3133 3135 3137 3138 3139 3141 3141 3141 3142 3142 3141 3141 3141 3142 3143 3143 3143 3144 3146 3147 3148 3149 3151 3153 3153 3154
3104 3105 3105 3105 3105 3105 3105 3105 3105 3104 3104 3104 3104 3104 3104 3104 3104 3103 3103 3103 3103 3103 3103 3103 3104 3104 3104 3104 3104 3103 3104 3104 3104 3104 3104 3104 3104 3104 3104 3105 3105 3106 3107 3108 3109 3110 3110 3111 3112 3114 3115 3117 3118 3118 3119 3121 3123 3125 3125 3127 3128 3130 3132 3133 3135 3136 3138 3139 3139 3139 3140 3140 3139 3140 3140 3141 3140 3141 3141 3142 3143 3145 3147 3149 3149 3150
3101 3102 3102 3102 3102 3102 3103 3103 3103 3102 3102 3102 3102 3101 3100 3101 3101 3101 3101 3100 3100 3100 3100 3101 3101 3101 3101 3100 3100 3100 3100 3101 3101 3101 3101 3101 3101 3101 3101 3101 3101 3101 3102 3102 3103 3104 3104 3105 3106 3107 3109 3110 3112 3112 3112 3114 3116 3119 3120 3121 3123 3124 3126 3128 3130 3132 3133 3134 3135 3136 3137 3137 3137 3137 3138 3138 3138 3137 3137 3138 3139 3140 3142 3144 3146 3146
3098 3099 3099 3099 3099 3100 3100 3100 3099 3098 3099 3100 3100 3099 3098 3097 3098 3098 3098 3098 3098 3097 3098 3098 3098 3098 3097 3097 3096 3096 3096 3096 3097 3097 3097 3097 3098 3097 3097 3097 3096 3096 3096 3097 3097 3098 3099 3099 3100 3100 3102 3103 3105 3106 3106 3107 3109 3111 3114 3115 3117 3119 3120 3122 3124 3126 3128 3129 3130 3132 3133 3134 3134 3135 3135 3135 3136 3136 3136 3136 3137 3137 3138 3139 3141 3142